KO4YAW Weather Reports


time (UTC)temp
F
wind
direction
speed
knots
gust
knots
rain 1hr
in
rain 24hr
in
rain mn
in
humidity
%
barometer
mb
20260906213606 94 76 0.9 1.7 0.00 0.00 0.00 27 1016.7
20260906212106 93 190 1.7 3.5 0.00 0.00 0.00 27 1017.0
20260906210606 93 240 1.7 2.6 0.00 0.00 0.00 28 1017.2
20260906205106 94 197 2.6 4.3 0.00 0.00 0.00 27 1017.2
20260906203606 92 174 1.7 4.3 0.00 0.00 0.00 27 1017.5
20260906202106 91 82 0.9 2.6 0.00 0.00 0.00 30 1017.6
20260906200606 91 140 0.9 2.6 0.00 0.00 0.00 29 1017.8
20260906195106 89 125 0.0 0.9 0.00 0.00 0.00 30 1017.9
20260906193606 89 190 0.0 1.7 0.00 0.00 0.00 31 1018.2
20260906192106 87 356 0.9 1.7 0.00 0.00 0.00 33 1018.4
20260906190606 86 84 0.0 0.9 0.00 0.00 0.00 33 1018.8
20260906185106 85 307 0.9 1.7 0.00 0.00 0.00 36 1019.0
20260906183606 83 206 1.7 3.5 0.00 0.00 0.00 38 1019.3
20260906182106 83 336 0.9 2.6 0.00 0.00 0.00 37 1019.6
20260906180606 81 24 0.9 2.6 0.00 0.00 0.00 39 1019.8
20260906175106 80 348 3.5 6.1 0.00 0.00 0.00 42 1020.2
20260906173606 78 149 0.0 0.9 0.00 0.00 0.00 46 1020.4
20260906172106 78 322 1.7 4.3 0.00 0.00 0.00 45 1020.6
20260906170606 77 350 1.7 3.5 0.00 0.00 0.00 47 1020.9
20260906165106 76 306 2.6 3.5 0.00 0.00 0.00 53 1021.0
20260906163606 75 331 3.5 6.1 0.00 0.00 0.00 55 1021.0
20260906162106 74 279 0.9 3.5 0.00 0.00 0.00 58 1020.9
20260906160606 73 288 1.7 3.5 0.00 0.00 0.00 63 1021.0
20260906155106 71 289 0.9 1.7 0.00 0.00 0.00 67 1020.9
20260906153606 70 340 2.6 3.5 0.00 0.00 0.00 69 1021.1
20260906152106 69 311 1.7 3.5 0.00 0.00 0.00 71 1021.2
20260906150606 68 267 1.7 3.5 0.00 0.00 0.00 72 1021.2
20260906145106 68 304 4.3 7.0 0.00 0.00 0.00 73 1021.1
20260906143606 67 324 2.6 4.3 0.00 0.00 0.00 75 1021.0
20260906142106 66 311 2.6 4.3 0.00 0.00 0.00 77 1021.1
20260906140606 65 309 4.3 6.1 0.00 0.00 0.00 78 1021.1
20260906135106 64 308 3.5 5.2 0.00 0.00 0.00 80 1021.0
20260906133606 63 307 2.6 4.3 0.00 0.00 0.00 79 1020.9
20260906132106 62 295 0.9 1.7 0.00 0.00 0.00 81 1020.8
20260906130606 61 297 0.9 1.7 0.00 0.00 0.00 81 1020.6
20260906125106 61 265 0.9 1.7 0.00 0.00 0.00 81 1020.8
20260906123606 61 287 2.6 4.3 0.00 0.00 0.00 79 1020.5
20260906122106 61 295 2.6 3.5 0.00 0.00 0.00 77 1020.5
20260906120606 61 294 0.9 1.7 0.00 0.00 0.00 75 1020.6
20260906115106 62 294 0.9 1.7 0.00 0.00 0.00 72 1020.5
20260906113606 62 266 0.9 1.7 0.00 0.00 0.00 70 1020.5
20260906112106 62 299 1.7 1.7 0.00 0.00 0.00 69 1020.5
20260906110606 63 61 0.0 0.0 0.00 0.00 0.00 69 1020.5
20260906105106 63 331 0.9 0.9 0.00 0.00 0.00 67 1020.2
20260906103606 64 331 0.0 0.9 0.00 0.00 0.00 65 1020.1
20260906102106 64 100 0.0 0.9 0.00 0.00 0.00 66 1019.9
20260906100606 64 279 0.9 1.7 0.00 0.00 0.00 64 1020.1
20260906095106 64 331 0.0 0.9 0.00 0.00 0.00 64 1020.1
20260906093606 65 340 0.9 0.9 0.00 0.00 0.00 63 1020.1
20260906092106 65 301 1.7 2.6 0.00 0.00 0.00 60 1019.9
20260906090606 66 307 0.0 0.0 0.00 0.00 0.00 59 1019.9
20260906085106 67 163 0.0 0.9 0.00 0.00 0.00 57 1019.8
20260906083606 67 289 0.0 0.9 0.00 0.00 0.00 56 1019.8
20260906082106 68 148 0.9 0.9 0.00 0.00 0.00 55 1020.1
20260906080606 69 272 0.0 0.0 0.00 0.00 0.00 54 1020.1
20260906075106 70 277 0.9 1.7 0.00 0.00 0.00 50 1019.9
20260906073606 71 7 0.0 0.0 0.00 0.00 0.00 48 1019.9
20260906072106 71 292 0.9 1.7 0.00 0.00 0.00 47 1019.5
20260906070606 73 274 0.9 2.6 0.00 0.00 0.00 45 1019.3
20260906065106 73 302 1.7 3.5 0.00 0.00 0.00 44 1019.2
20260906063606 73 285 2.6 3.5 0.00 0.00 0.00 45 1019.1
20260906062105 73 289 1.7 4.3 0.00 0.00 0.00 46 1019.5
20260906060605 75 277 4.3 7.0 0.00 0.00 0.00 39 1019.8
20260906055105 74 281 1.7 6.1 0.00 0.00 0.00 38 1020.1
20260906053605 75 312 1.7 3.5 0.00 0.00 0.00 39 1019.7
20260906052105 74 314 1.7 2.6 0.00 0.00 0.00 39 1019.8
20260906050605 74 289 0.9 2.6 0.00 0.00 0.00 39 1019.9
20260906045105 74 35 0.9 1.7 0.00 0.00 0.00 39 1020.1
20260906043605 75 280 0.9 1.7 0.00 0.00 0.00 36 1020.1
20260906042105 76 244 0.0 0.0 0.00 0.00 0.00 36 1020.3
20260906040605 76 212 0.0 0.9 0.00 0.00 0.00 34 1019.9
20260906035105 76 200 0.0 0.0 0.00 0.00 0.00 34 1019.5
20260906033605 77 0 0.9 0.9 0.00 0.00 0.00 34 1019.3
20260906032105 78 59 0.0 1.7 0.00 0.00 0.00 33 1019.2
20260906030605 78 276 0.0 0.9 0.00 0.00 0.00 32 1019.0
20260906025105 80 37 0.9 1.7 0.00 0.00 0.00 30 1018.9
20260906023605 81 359 0.9 1.7 0.00 0.00 0.00 29 1018.8
20260906022105 82 27 0.9 1.7 0.00 0.00 0.00 28 1018.8
20260906020605 83 356 1.7 2.6 0.00 0.00 0.00 26 1018.5
20260906015105 84 343 1.7 4.3 0.00 0.00 0.00 26 1018.3
20260906013605 85 278 0.0 0.0 0.00 0.00 0.00 24 1017.8
20260906012105 85 0 0.0 0.0 0.00 0.00 0.00 24 1017.8
20260906010605 87 292 0.9 1.7 0.00 0.00 0.00 23 1017.7
20260906005105 89 330 1.7 1.7 0.00 0.00 0.00 22 1017.7
20260906003605 93 337 0.9 0.9 0.00 0.00 0.00 20 1017.7
20260906002105 93 357 0.9 1.7 0.00 0.00 0.00 20 1017.5
20260906000605 94 40 0.9 2.6 0.00 0.00 0.00 19 1017.5
20260905235105 94 293 1.7 2.6 0.00 0.00 0.00 19 1017.3
20260905233605 95 18 1.7 2.6 0.00 0.00 0.00 19 1017.3
20260905232105 93 40 1.7 3.5 0.00 0.00 0.00 19 1017.3
20260905230605 94 350 3.5 5.2 0.00 0.00 0.00 19 1017.3
20260905225105 93 325 3.5 6.1 0.00 0.00 0.00 20 1017.2
20260905223605 93 358 1.7 4.3 0.00 0.00 0.00 19 1017.2
20260905222105 93 352 3.5 5.2 0.00 0.00 0.00 20 1017.3
20260905220605 94 341 5.2 8.7 0.00 0.00 0.00 19 1017.5
20260905215105 94 356 0.9 1.7 0.00 0.00 0.00 19 1017.7